Lid_Strength_Index
12 14 15 13 12 14 15 15 16 16 14 13 14 13 12 13 14 13 12 12 11 7 5 7 6 5 5 3 2 2 2 2 2 3 3 1 1 1 1 0 0 0 -0 -0
13 16 13 12 14 14 15 16 17 16 13 14 15 14 14 13 13 12 12 12 12 11 10 9 9 7 6 4 2 2 2 2 2 2 2 3 2 0 0 -0 -0 -0 0 -0
15 14 13 13 14 15 16 15 17 16 14 14 15 15 15 13 13 13 12 12 12 11 10 10 11 10 9 7 3 2 2 2 2 2 2 2 1 1 1 1 1 0 0 0
13 12 13 14 14 14 16 15 15 15 15 17 15 19 17 14 13 13 12 13 12 12 11 11 10 10 10 11 10 9 4 3 2 2 2 2 2 3 1 1 0 0 1 1
15 14 14 15 14 14 15 14 14 15 16 17 17 19 17 17 15 14 13 12 12 12 12 11 10 9 9 9 9 10 11 4 2 2 2 1 2 2 1 1 2 4 5 4
13 12 12 13 13 13 13 14 15 16 17 19 17 17 18 17 15 13 11 12 12 12 11 11 9 8 7 7 8 10 11 10 3 2 2 2 2 2 2 2 4 6 6 6
15 15 14 12 14 14 14 16 19 20 20 21 20 19 15 16 15 14 13 12 12 12 11 10 9 9 8 7 7 9 8 7 4 2 2 3 3 2 2 3 5 7 8 8
17 18 15 13 13 15 16 15 20 24 24 22 20 20 17 14 15 13 13 13 12 12 10 10 9 9 9 7 7 7 6 6 3 1 4 5 4 4 5 6 7 8 8 9
17 17 14 13 13 12 16 17 14 19 24 21 20 19 15 15 14 13 13 13 12 11 10 9 9 9 9 8 7 7 7 8 6 6 7 9 8 7 8 9 9 9 10 11
15 17 14 14 13 13 14 13 16 18 23 24 21 21 19 17 14 13 13 12 12 11 11 10 10 10 10 9 9 9 9 9 9 10 10 11 11 11 10 10 10 11 12 12
14 15 16 13 14 15 16 16 16 15 18 21 24 20 16 14 12 12 12 12 12 11 11 11 10 10 10 10 10 10 10 10 12 12 12 13 13 12 12 12 12 12 12 12
13 15 17 16 14 13 14 14 13 16 19 20 20 20 15 14 13 13 12 11 11 11 11 11 11 11 12 11 11 11 11 11 11 12 13 13 14 13 12 12 13 13 13 13
12 15 19 16 14 14 15 15 14 14 16 18 20 18 15 13 12 12 12 11 10 11 12 11 12 12 12 12 12 12 12 12 12 12 13 14 14 13 13 13 13 14 14 14
9 13 15 17 16 14 16 15 15 14 16 18 18 16 14 14 12 12 11 10 10 11 11 11 11 12 12 12 12 12 13 12 13 13 13 14 14 14 13 14 14 14 15 15
10 15 15 15 14 13 13 13 13 14 13 15 15 16 13 12 12 12 10 10 10 11 11 11 11 11 11 12 12 12 12 13 13 13 13 14 14 14 14 15 15 16 16 16
12 17 15 16 14 13 14 13 13 13 13 14 14 15 13 12 11 11 10 10 10 9 9 9 10 10 11 11 11 11 12 13 13 13 14 14 14 15 15 16 16 16 16 17
12 16 18 19 15 15 16 15 14 13 12 13 16 13 13 13 12 11 10 10 9 9 9 9 10 10 10 10 11 11 12 13 14 14 15 15 16 16 16 16 16 16 16 16
13 13 15 19 16 19 15 13 13 13 13 12 12 13 13 12 11 10 9 9 9 9 8 8 9 9 9 9 10 11 12 13 14 15 15 16 16 16 17 17 17 17 17 17
13 14 18 17 22 17 14 14 14 14 13 12 12 12 12 13 13 12 10 9 8 8 7 7 7 8 9 10 10 12 13 14 15 15 15 16 16 16 17 17 18 17 17 18
13 13 14 24 18 19 14 13 12 11 15 10 11 12 13 13 14 11 10 9 9 9 8 8 8 9 10 11 12 14 14 15 15 15 15 15 16 17 17 17 17 18 18 17
16 17 16 25 22 20 16 14 12 16 15 14 13 11 12 12 10 11 10 11 10 10 10 9 9 10 10 12 13 13 14 15 14 15 16 17 17 17 17 17 18 18 18 18
15 16 18 21 23 19 14 15 14 13 15 14 13 12 13 13 12 12 11 11 11 11 11 10 10 11 12 13 13 14 14 14 15 16 16 17 17 17 18 18 19 19 19 19
14 13 15 15 15 13 14 14 13 13 14 14 14 14 13 13 13 12 12 12 12 12 12 12 11 13 14 13 12 14 14 16 16 16 17 18 18 18 19 19 20 20 20 19
14 13 14 13 14 14 14 14 13 13 14 13 13 14 14 14 12 12 13 13 13 16 16 16 15 16 15 14 13 13 15 15 16 16 18 19 19 19 19 19 19 20 20 20
13 12 14 14 14 14 14 14 13 14 13 13 13 13 13 13 13 13 14 16 16 17 17 17 16 16 16 15 15 15 15 15 16 17 18 19 19 19 20 20 20 20 20 20
12 12 13 15 12 12 12 13 13 13 13 13 14 14 14 14 13 14 15 16 17 18 18 17 17 16 16 17 16 16 15 15 17 18 19 19 19 20 20 21 21 19 18 17